STARLINK-34717, 65060

Orbit data source: Space-Track

STARLINK-34717, 65060 is a payload satellite owned by SpaceX/Seattle (US) in SSO that was launched on Thu, 31 Jul 2025 UTC via an FALCON 9 launch vehicle from the Air Force Western Test Range (AFWTR). Payload-class satellites include a variety of spacecraft equipped with specific instruments for various scientific and technological missions. These include communications satellites like Starlink; space stations such as the ISS; scientific satellites like the Hubble; Earth observation satellites from companies like Planet Labs, Umbra, and HawkEye 360; GPS; miniature CubeSats for education and research; and military/defense satellites.

Loading next visibility...
Identifier
65060, 2025-165E
Orbit
SSO
Country
Flag of USUS
Related business
Manufacturer
SpaceX/Seattle
Mission
Operational Commercial Communications
Bus & Motor
STARLINK V2MO, Unknown motor
Mass
575 kg wet, ~530 kg dry
Launch date (UTC)
2025-07-31 (4 months ago)
Launch vehicle
FALCON 9
Launch site
Air Force Western Test Range (AFWTR)
Object type
Payload
Rocket body
Debris
Shape & HBR
Box + 2 Pan, 17.7 m
Radar Cross Section
36.964 m², Large (>1 m²)

Expand to show TLE details & history
Last TLE update: 19 hours ago

TLE from 19 hours ago
0 STARLINK-34717
1 65060U 25165E   25342.17967794  .00004078  00000-0  28666-3 0  9992
2 65060  97.6031  57.0637 0000938  92.2925 267.8409 15.05654925 21025
Epoch: 2025-12-08T04:18Z
TLE epoch observation values (Epoch: 2025-12-08T04:18:44.174Z)
Latitude
-0.00001°
Longitude
-84.80278°
Altitude
552.586 km
Speed
7.585 km/s
True Right ascension
03h 48m 15s
True Declination
0° 00' 00"
Sunlit
Object was in full shadow at epoch
Visualization orbit readout
Latitude
Unknown
Longitude
Unknown
Altitude
Unknown
Speed
Unknown
Apparent Right ascension
Unknown
Apparent Declination
Unknown
Sunlit
N/A
Visualization observer readout
Local Sidereal Time
21:54:02
Azimuth
Unknown
Elevation
Unknown
Doppler factor
Unknown
Orbital elements
Apogee altitude
547.139 km
Perigee altitude
545.84 km
Semi-major axis
6,924.627 km
Eccentricity
0.00009
Inclination
97.6031°
RAAN
57.0637°
Arg. of periapsis
92.2925°
True anomaly
267.83016°
Mean anomaly
267.8409°
Eccentric anomaly
267.83553°
Mean motion
3.76659 °/min
Orbital period
95.58 mins
BSTAR
0.00028666
Loading maneuver chart data...
Computing Atmospheric mass density...
Loading historical data...
Loading historical data...
Loading historical data...
Loading historical data...
Loading historical data...
Loading historical data...
Loading historical data...

Documentation

Showing up to 5 results
|